GW4763 Weather Reports


time (UTC)temp
C
wind
direction
speed
KPH
gust
KPH
rain 1hr
cm
rain 24hr
cm
rain mn
cm
humidity
%
barometer
mb
20260507213458 23 211 8.0 22.5 0.00 0.00 0.00 11
20260507212858 22 239 11.3 29.0 0.00 0.00 0.00 10
20260507212258 23 213 8.0 22.5 0.00 0.00 0.00 11
20260507211658 23 199 3.2 25.7 0.00 0.00 0.00 12
20260507211115 23 209 12.9 29.0 0.00 0.00 0.00 11
20260507210515 23 216 3.2 22.5 0.00 0.00 0.00 12
20260507205915 23 166 11.3 30.6 0.00 0.00 0.00 12
20260507205258 23 166 11.3 30.6 0.00 0.00 0.00 11
20260507204658 23 181 4.8 30.6 0.00 0.00 0.00 12
20260507204058 23 192 8.0 24.1 0.00 0.00 0.00 11
20260507203515 23 175 6.4 30.6 0.00 0.00 0.00 13
20260507202858 23 206 4.8 30.6 0.00 0.00 0.00 13
20260507202259 23 192 11.3 29.0 0.00 0.00 0.00 12
20260507201658 22 240 11.3 19.3 0.00 0.00 0.00 12
20260507201058 22 221 6.4 27.4 0.00 0.00 0.00 14
20260507200458 22 211 6.4 27.4 0.00 0.00 0.00 14
20260507195858 22 191 8.0 25.7 0.00 0.00 0.00 15
20260507195258 22 217 11.3 25.7 0.00 0.00 0.00 13
20260507194658 23 234 8.0 22.5 0.00 0.00 0.00 14
20260507194058 22 244 9.7 27.4 0.00 0.00 0.00 15
20260507193458 22 254 8.0 27.4 0.00 0.00 0.00 15
20260507192859 22 259 6.4 27.4 0.00 0.00 0.00 16
20260507192258 22 242 8.0 27.4 0.00 0.00 0.00 15
20260507191658 22 216 8.0 27.4 0.00 0.00 0.00 15
20260507191058 22 201 4.8 20.9 0.00 0.00 0.00 15
20260507190516 21 211 8.0 30.6 0.00 0.00 0.00 16
20260507185858 22 273 17.7 27.4 0.00 0.00 0.00 15
20260507185332 22 279 6.4 19.3 0.00 0.00 0.00 15
20260507184658 21 205 6.4 25.7 0.00 0.00 0.00 14
20260507184058 22 217 8.0 27.4 0.00 0.00 0.00 14
20260507183459 22 246 8.0 20.9 0.00 0.00 0.00 15
20260507182858 21 237 6.4 25.7 0.00 0.00 0.00 17
20260507182258 22 189 3.2 19.3 0.00 0.00 0.00 15
20260507181732 21 165 0.0 14.5 0.00 0.00 0.00 16
20260507181058 21 160 3.2 14.5 0.00 0.00 0.00 20
20260507180458 21 140 0.0 8.0 0.00 0.00 0.00 18
20260507175915 21 174 6.4 17.7 0.00 0.00 0.00 16
20260507175258 21 212 4.8 20.9 0.00 0.00 0.00 17
20260507174658 21 249 4.8 20.9 0.00 0.00 0.00 19
20260507174058 20 241 8.0 20.9 0.00 0.00 0.00 18
20260507173515 21 167 6.4 17.7 0.00 0.00 0.00 16
20260507172858 21 213 6.4 20.9 0.00 0.00 0.00 19
20260507172258 20 193 4.8 17.7 0.00 0.00 0.00 18
20260507171658 20 121 4.8 12.9 0.00 0.00 0.00 24
20260507171058 19 137 4.8 19.3 0.00 0.00 0.00 21
20260507170458 19 121 6.4 22.5 0.00 0.00 0.00 22
20260507165932 19 122 3.2 11.3 0.00 0.00 0.00 21
20260507165258 18 103 3.2 30.6 0.00 0.00 0.00 26
20260507164715 18 141 3.2 16.1 0.00 0.00 0.00 24
20260507164058 18 154 6.4 19.3 0.00 0.00 0.00 24
20260507163459 18 165 8.0 20.9 0.00 0.00 0.00 27
20260507162858 18 108 4.8 20.9 0.00 0.00 0.00 28
20260507162258 17 303 3.2 27.4 0.00 0.00 0.00 27
20260507161658 18 124 6.4 22.5 0.00 0.00 0.00 28
20260507161058 17 139 6.4 20.9 0.00 0.00 0.00 30
20260507160458 17 162 8.0 20.9 0.00 0.00 0.00 30
20260507155858 17 138 6.4 19.3 0.00 0.00 0.00 32
20260507155315 17 152 6.4 22.5 0.00 0.00 0.00 33
20260507154658 16 120 6.4 22.5 0.00 0.00 0.00 34
20260507154058 16 145 4.8 20.9 0.00 0.00 0.00 36
20260507153459 16 127 6.4 25.7 0.00 0.00 0.00 38
20260507152858 15 141 1.6 22.5 0.00 0.00 0.00 37
20260507152258 15 108 4.8 19.3 0.00 0.00 0.00 39
20260507151658 15 116 6.4 19.3 0.00 0.00 0.00 41
20260507151058 15 125 8.0 17.7 0.00 0.00 0.00 39
20260507150458 14 136 6.4 12.9 0.00 0.00 0.00 41
20260507145858 13 142 6.4 12.9 0.00 0.00 0.00 41
20260507145258 13 147 3.2 12.9 0.00 0.00 0.00 44
20260507144658 12 143 6.4 11.3 0.00 0.00 0.00 45
20260507144058 12 165 4.8 8.0 0.00 0.00 0.00 45
20260507143458 11 157 4.8 8.0 0.00 0.00 0.00 46
20260507142858 10 144 0.0 8.0 0.00 0.00 0.00 49
20260507142258 10 69 0.0 6.4 0.00 0.00 0.00 49
20260507141658 9 160 0.0 8.0 0.00 0.00 0.00 49
20260507141132 9 147 0.0 4.8 0.00 0.00 0.00 50
20260507140458 8 159 0.0 4.8 0.00 0.00 0.00 54
20260507135858 7 127 4.8 6.4 0.00 0.00 0.00 57
20260507135258 7 113 3.2 6.4 0.00 0.00 0.00 61
20260507134658 7 104 0.0 6.4 0.00 0.00 0.00 65
20260507134058 6 50 0.0 4.8 0.00 0.00 0.00 68
20260507133458 5 73 0.0 4.8 0.00 0.00 0.00 71
20260507132915 5 156 0.0 4.8 0.00 0.00 0.00 77
20260507132258 4 81 0.0 4.8 0.00 0.00 0.00 84
20260507131658 3 140 0.0 3.2 0.00 0.00 0.00 93
20260507131116 2 206 0.0 0.0 0.00 0.00 0.00 97
20260507130458 1 244 0.0 3.2 0.00 0.00 0.00 98
20260507125858 1 331 0.0 3.2 0.00 0.00 0.00 97
20260507125258 0 225 0.0 6.4 0.00 0.00 0.00 97
20260507124658 0 199 0.0 4.8 0.00 0.00 0.00 97
20260507124115 0 157 0.0 4.8 0.00 0.00 0.00 97
20260507123532 0 204 0.0 4.8 0.00 0.00 0.00 96
20260507122858 0 320 0.0 4.8 0.00 0.00 0.00 96
20260507122258 0 305 0.0 0.0 0.00 0.00 0.00 96
20260507121658 0 94 0.0 4.8 0.00 0.00 0.00 96
20260507121058 0 195 0.0 6.4 0.00 0.00 0.00 97
20260507120458 0 243 0.0 3.2 0.00 0.00 0.00 97
20260507115858 0 236 1.6 6.4 0.00 0.00 0.00 97
20260507115259 0 249 0.0 4.8 0.00 0.00 0.00 96
20260507114658 0 196 0.0 4.8 0.00 0.00 0.00 95
20260507114115 0 260 0.0 3.2 0.00 0.00 0.00 95
20260507113458 0 260 0.0 4.8 0.00 0.00 0.00 96
20260507112858 0 209 0.0 0.0 0.00 0.00 0.00 95
20260507112315 0 258 0.0 0.0 0.00 0.00 0.00 95
20260507111658 0 238 0.0 0.0 0.00 0.00 0.00 94
20260507111058 0 238 0.0 0.0 0.00 0.00 0.00 94
20260507110516 0 238 0.0 3.2 0.00 0.00 0.00 94
20260507105915 0 252 0.0 6.4 0.00 0.00 0.00 94
20260507105258 1 266 1.6 4.8 0.00 0.00 0.00 96
20260507104659 0 235 0.0 4.8 0.00 0.00 0.00 96
20260507104058 1 241 0.0 3.2 0.00 0.00 0.00 96
20260507103532 0 207 0.0 4.8 0.00 0.00 0.00 95
20260507102858 0 253 0.0 0.0 0.00 0.00 0.00 95
20260507102258 0 253 0.0 0.0 0.00 0.00 0.00 95
20260507101732 1 253 0.0 0.0 0.00 0.00 0.00 95
20260507101058 1 255 0.0 3.2 0.00 0.00 0.00 95
20260507100509 1 255 0.0 3.2 0.00 0.00 0.00 94
20260507095858 1 214 0.0 0.0 0.00 0.00 0.00 93
20260507095258 1 214 0.0 4.8 0.00 0.00 0.00 93
20260507094658 1 302 0.0 4.8 0.00 0.00 0.00 92
20260507094058 1 127 0.0 3.2 0.00 0.00 0.00 91
20260507093458 1 273 0.0 3.2 0.00 0.00 0.00 91
20260507092858 1 231 0.0 0.0 0.00 0.00 0.00 88
20260507092258 1 283 0.0 3.2 0.00 0.00 0.00 88
20260507091658 2 283 0.0 3.2 0.00 0.00 0.00 85
20260507091058 2 279 1.6 3.2 0.00 0.00 0.00 85
20260507090532 2 278 1.6 3.2 0.00 0.00 0.00 88
20260507085915 2 269 0.0 3.2 0.00 0.00 0.00 85
20260507085258 2 256 1.6 4.8 0.00 0.00 0.00 85
20260507084715 2 284 0.0 4.8 0.00 0.00 0.00 85
20260507084058 2 269 0.0 6.4 0.00 0.00 0.00 87
20260507083515 2 274 0.0 6.4 0.00 0.00 0.00 86
20260507082915 2 284 0.0 4.8 0.00 0.00 0.00 88
20260507082258 2 259 4.8 4.8 0.00 0.00 0.00 87
20260507081658 2 276 0.0 3.2 0.00 0.00 0.00 84
20260507081058 2 265 0.0 8.0 0.00 0.00 0.00 84
20260507080458 2 267 1.6 4.8 0.00 0.00 0.00 85
20260507075858 2 277 3.2 6.4 0.00 0.00 0.00 84
20260507075258 2 262 0.0 3.2 0.00 0.00 0.00 89
20260507074658 2 54 0.0 4.8 0.00 0.00 0.00 86
20260507074058 2 309 0.0 6.4 0.00 0.00 0.00 84
20260507073458 2 307 0.0 6.4 0.00 0.00 0.00 87
20260507072858 2 272 0.0 4.8 0.00 0.00 0.00 88
20260507072258 2 39 0.0 4.8 0.00 0.00 0.00 86
20260507071658 2 227 0.0 4.8 0.00 0.00 0.00 82
20260507071115 2 237 3.2 4.8 0.00 0.00 0.00 84
20260507070515 2 245 1.6 4.8 0.00 0.00 0.00 82
20260507065859 2 272 3.2 6.4 0.00 0.00 0.00 81
20260507065316 2 268 0.0 4.8 0.00 0.00 0.00 84
20260507064715 2 268 1.6 0.0 0.00 0.00 0.00 84
20260507064058 3 270 0.0 4.8 0.00 0.00 0.00 83
20260507063459 3 0 0.0 6.4 0.00 0.00 0.00 76
20260507062858 3 292 1.6 4.8 0.00 0.00 0.00 80
20260507062259 4 2 0.0 1.6 0.00 0.00 0.00 74
20260507061658 4 96 0.0 8.0 0.00 0.00 0.00 74
20260507061058 3 285 0.0 4.8 0.00 0.00 0.00 74
20260507060458 4 285 1.6 3.2 0.00 0.00 0.00 75
20260507055858 5 282 0.0 4.8 0.00 0.00 0.00 73
20260507055258 5 262 0.0 4.8 0.00 0.00 0.00 72
20260507054658 5 274 3.2 3.2 0.00 0.00 0.00 70
20260507054058 6 266 0.0 6.4 0.00 0.00 0.00 67
20260507053515 6 266 4.8 6.4 0.00 0.00 0.00 65
20260507052858 7 267 0.0 3.2 0.00 0.00 0.00 64
20260507052258 8 217 0.0 6.4 0.00 0.00 0.00 54
20260507051732 8 211 1.6 6.4 0.00 0.00 0.00 51
20260507051102 8 235 3.2 6.4 0.00 0.00 0.00 54
20260507050458 7 220 1.6 4.8 0.00 0.00 0.00 56
20260507045858 7 173 1.6 4.8 0.00 0.00 0.00 57
20260507045259 6 222 1.6 3.2 0.00 0.00 0.00 60
20260507044658 7 181 0.0 3.2 0.00 0.00 0.00 57
20260507044058 8 230 0.0 4.8 0.00 0.00 0.00 54
20260507043550 8 217 1.6 4.8 0.00 0.00 0.00 51
20260507042858 8 236 0.0 4.8 0.00 0.00 0.00 51
20260507042258 8 232 0.0 4.8 0.00 0.00 0.00 51
20260507041658 8 244 1.6 4.8 0.00 0.00 0.00 52
20260507041116 10 253 0.0 4.8 0.00 0.00 0.00 47
20260507040459 11 240 3.2 4.8 0.00 0.00 0.00 42
20260507035858 11 245 0.0 6.4 0.00 0.00 0.00 40
20260507035258 11 257 3.2 8.0 0.00 0.00 0.00 38
20260507034715 11 235 3.2 6.4 0.00 0.00 0.00 38
20260507034058 11 249 3.2 8.0 0.00 0.00 0.00 39
20260507033459 11 246 4.8 8.0 0.00 0.00 0.00 39
20260507032916 12 270 4.8 9.7 0.00 0.00 0.00 37
20260507032258 12 233 3.2 8.0 0.00 0.00 0.00 37
20260507031715 12 251 4.8 8.0 0.00 0.00 0.00 35
20260507031058 12 244 3.2 6.4 0.00 0.00 0.00 35
20260507030458 13 247 1.6 8.0 0.00 0.00 0.00 34
20260507025858 13 256 3.2 9.7 0.00 0.00 0.00 33
20260507025259 13 254 3.2 6.4 0.00 0.00 0.00 33
20260507024659 13 227 1.6 6.4 0.00 0.00 0.00 33
20260507024115 14 223 3.2 11.3 0.00 0.00 0.00 31
20260507023458 15 259 4.8 11.3 0.00 0.00 0.00 30
20260507022859 15 242 4.8 11.3 0.00 0.00 0.00 29
20260507022259 15 264 4.8 14.5 0.00 0.00 0.00 27
20260507021658 15 271 4.8 14.5 0.00 0.00 0.00 26
20260507021058 16 267 6.4 17.7 0.00 0.00 0.00 26
20260507020458 16 240 6.4 16.1 0.00 0.00 0.00 25
20260507015858 16 223 8.0 17.7 0.00 0.00 0.00 25
20260507015258 17 249 6.4 24.1 0.00 0.00 0.00 24
20260507014715 17 271 9.7 25.7 0.00 0.00 0.00 24
20260507014058 17 282 9.7 22.5 0.00 0.00 0.00 23
20260507013458 17 240 9.7 22.5 0.00 0.00 0.00 22
20260507012858 17 254 9.7 19.3 0.00 0.00 0.00 22
20260507012258 18 240 8.0 20.9 0.00 0.00 0.00 22
20260507011658 18 282 8.0 24.1 0.00 0.00 0.00 21
20260507011058 18 266 8.0 22.5 0.00 0.00 0.00 19
20260507010515 18 269 8.0 25.7 0.00 0.00 0.00 19
20260507005858 18 226 11.3 29.0 0.00 0.00 0.00 19
20260507005258 19 236 14.5 33.8 0.00 0.00 0.00 18
20260507004658 19 260 12.9 29.0 0.00 0.00 0.00 17
20260507004058 19 240 8.0 32.2 0.00 0.00 0.00 16
20260507003458 20 261 11.3 33.8 0.00 0.00 0.00 15
20260507002858 20 239 16.1 30.6 0.00 0.00 0.00 14
20260507002258 20 217 11.3 27.4 0.00 0.00 0.00 15
20260507001658 20 247 9.7 27.4 0.00 0.00 0.00 13
20260507001058 20 229 8.0 29.0 0.00 0.00 0.00 14
20260507000459 20 240 8.0 33.8 0.00 0.00 0.00 13
20260506235858 21 238 9.7 30.6 0.00 0.00 0.00 13
20260506235258 21 267 8.0 29.0 0.00 0.00 0.00 15
20260506234658 21 210 11.3 30.6 0.00 0.00 0.00 14
20260506234115 21 247 11.3 27.4 0.00 0.00 0.00 14
20260506233515 21 268 11.3 27.4 0.00 0.00 0.00 14
20260506232858 21 211 8.0 33.8 0.00 0.00 0.00 14
20260506232258 21 217 9.7 30.6 0.00 0.00 0.00 15
20260506231658 21 206 11.3 35.4 0.00 0.00 0.00 13
20260506231116 21 207 9.7 30.6 0.00 0.00 0.00 12
20260506230458 21 184 6.4 32.2 0.00 0.00 0.00 13
20260506225915 21 238 8.0 27.4 0.00 0.00 0.00 15
20260506225315 22 179 9.7 27.4 0.00 0.00 0.00 14
20260506224658 22 223 6.4 32.2 0.00 0.00 0.00 12
20260506224058 22 221 6.4 25.7 0.00 0.00 0.00 13
20260506223458 22 273 6.4 29.0 0.00 0.00 0.00 15
20260506222858 22 246 9.7 30.6 0.00 0.00 0.00 13
20260506222258 22 198 8.0 25.7 0.00 0.00 0.00 15
20260506221658 22 184 11.3 30.6 0.00 0.00 0.00 16
20260506221058 22 246 16.1 38.6 0.00 0.00 0.00 15
20260506220458 22 242 11.3 29.0 0.00 0.00 0.00 16
20260506215859 22 202 11.3 25.7 0.00 0.00 0.00 15
20260506215259 22 207 11.3 30.6 0.00 0.00 0.00 17
20260506214658 22 180 11.3 35.4 0.00 0.00 0.00 15
20260506214058 22 210 1.6 30.6 0.00 0.00 0.00 17